Location: Burbank
(38.7788°N, 114.0429°W)
Time: 01:32:48
(UTC+00:00)

Tiros 1 despin weight - Pass Details

Date: 16 May 2026
Orbit: 554 x 591 km, 48.2° (Epoch: 6 June)

Event Time Altitude Azimuth Distance (km) Brightness Sun altitude
Rises 18:43:41 0° 296° (WNW) 2,729 ? 67.8°
Reaches altitude 10° 18:46:03 10° 288° (WNW) 1,831 ? 68.0°
Maximum altitude 18:49:52 36° 221° (SW) 888 ? 68.4°
Drops below altitude 10° 18:53:42 10° 155° (SSE) 1,827 ? 68.7°
Sets 18:56:04 0° 146° (SE) 2,722 ? 68.9°
